Date String (YYYY-MM-DD hh:mm:ss) UTC,Instrument flags,Ambient pressure (hPa),Sample flow (lpm),Bypass flow (lpm),Sample temperature (°C),Ambient temperature (°C),ASC tube jacket temperature (°C),LED temperature (°C),Box temperature (°C),Sample RH (%),Span deviation,Mass concentration (μg/m³),Mass concentration (μg/m³),Mass concentration (μg/m³)
DateTimeUTC,F1_M11,P_M11,Q1_M11,Q2_M11,T1_M11,T2_M11,T3_M11,T4_M11,T5_M11,U1_M11,ZSPAN_M11,X0_M11,X2_M11,X1_M11
2023-04-30 03:00:00,,0831.3,4.99,0.00,29.4,27.6,00.0,37.9,30.9,13.1,0000.0,0012.37,0004.33,0002.19
2023-04-30 03:01:00,,0831.3,5.00,0.00,29.3,27.6,00.0,37.9,30.9,13.3,0000.0,0012.19,0004.28,0002.17
2023-04-30 03:02:00,,0831.3,5.01,0.00,29.3,27.6,00.0,37.9,30.8,13.4,0000.0,0012.28,0004.27,0002.16
2023-04-30 03:03:00,,0831.3,5.01,0.00,29.3,27.6,00.0,37.9,30.8,13.3,0000.0,0012.12,0004.24,0002.15
2023-04-30 03:04:00,,0831.3,5.01,0.00,29.3,27.6,00.0,37.8,30.8,13.3,0000.0,0011.34,0004.23,0002.15
2023-04-30 03:05:00,,0831.3,5.00,0.00,29.3,27.6,00.0,37.8,30.8,13.3,0000.0,0011.19,0004.20,0002.13
2023-04-30 03:06:00,,0831.3,5.00,0.00,29.3,27.6,00.0,37.8,30.8,13.2,0000.0,0011.26,0004.19,0002.14
2023-04-30 03:07:00,,0831.3,5.00,0.00,29.3,27.6,00.0,37.8,30.7,13.3,0000.0,0011.30,0004.13,0002.14
2023-04-30 03:08:00,,0831.3,5.00,0.00,29.3,27.6,00.0,37.8,30.8,13.2,0000.0,0011.86,0004.17,0002.14
2023-04-30 03:09:00,,0831.3,5.00,0.00,29.3,27.6,00.0,37.8,30.8,13.2,0000.0,0011.70,0004.21,0002.16
2023-04-30 03:10:00,,0831.3,4.99,0.00,29.3,27.6,00.0,37.8,30.8,13.2,0000.0,0011.66,0004.19,0002.17
2023-04-30 03:11:00,,0831.3,5.00,0.00,29.3,27.6,00.0,37.8,30.8,13.1,0000.0,0011.74,0004.06,0002.15
2023-04-30 03:12:00,,0831.4,5.01,0.00,29.3,27.5,00.0,37.8,30.8,13.3,0000.0,0011.95,0004.09,0002.16
2023-04-30 03:13:00,,0831.3,5.01,0.00,29.3,27.5,00.0,37.8,30.8,13.3,0000.0,0011.76,0004.06,0002.17
2023-04-30 03:14:00,,0831.3,4.99,0.00,29.2,27.6,00.0,37.8,30.7,13.5,0000.0,0011.68,0004.06,0002.18
2023-04-30 03:15:00,,0831.3,4.99,0.00,29.2,27.5,00.0,37.7,30.7,13.4,0000.0,0011.49,0004.06,0002.18
2023-04-30 03:16:00,,0831.3,5.00,0.00,29.2,27.5,00.0,37.7,30.7,13.3,0000.0,0011.39,0004.02,0002.18
2023-04-30 03:17:00,,0831.2,5.01,0.00,29.2,27.5,00.0,37.7,30.7,13.3,0000.0,0011.07,0003.96,0002.17
2023-04-30 03:18:00,,0831.3,5.02,0.00,29.2,27.5,00.0,37.7,30.7,13.3,0000.0,0010.91,0003.95,0002.19
2023-04-30 03:19:00,,0831.3,5.00,0.00,29.2,27.5,00.0,37.7,30.7,13.4,0000.0,0010.24,0003.92,0002.20
2023-04-30 03:20:00,,0831.3,5.00,0.00,29.2,27.5,00.0,37.7,30.7,13.4,0000.0,0009.42,0003.90,0002.22
2023-04-30 03:21:00,,0831.3,5.00,0.00,29.2,27.5,00.0,37.7,30.7,13.4,0000.0,0009.34,0003.91,0002.21
2023-04-30 03:22:00,,0831.2,5.00,0.00,29.1,27.5,00.0,37.7,30.7,13.4,0000.0,0009.26,0004.02,0002.22
2023-04-30 03:23:00,,0831.2,5.00,0.00,29.1,27.4,00.0,37.7,30.7,13.5,0000.0,0009.44,0004.03,0002.22
2023-04-30 03:24:00,,0831.3,5.00,0.00,29.1,27.4,00.0,37.7,30.7,13.6,0000.0,0009.58,0004.04,0002.21
2023-04-30 03:25:00,,0831.3,5.00,0.00,29.1,27.4,00.0,37.7,30.6,13.7,0000.0,0009.65,0004.05,0002.20
2023-04-30 03:26:00,,0831.3,5.01,0.00,29.1,27.4,00.0,37.6,30.6,13.6,0000.0,0010.19,0004.07,0002.21
2023-04-30 03:27:00,,0831.3,5.00,0.00,29.1,27.4,00.0,37.6,30.6,13.7,0000.0,0010.22,0004.11,0002.23
2023-04-30 03:28:00,,0831.3,4.99,0.00,29.1,27.3,00.0,37.6,30.6,14.0,0000.0,0010.30,0004.13,0002.26
2023-04-30 03:29:00,,0831.3,5.01,0.00,29.1,27.3,00.0,37.6,30.6,14.1,0000.0,0010.54,0004.13,0002.24
2023-04-30 03:30:00,,0831.3,5.01,0.00,29.1,27.3,00.0,37.6,30.6,13.9,0000.0,0010.60,0004.15,0002.24
2023-04-30 03:31:00,,0831.2,5.00,0.00,29.1,27.3,00.0,37.6,30.6,13.8,0000.0,0010.63,0004.12,0002.22
2023-04-30 03:32:00,,0831.3,5.00,0.00,29.0,27.3,00.0,37.6,30.5,13.8,0000.0,0010.66,0004.13,0002.25
2023-04-30 03:33:00,,0831.2,5.00,0.00,29.0,27.3,00.0,37.6,30.5,13.9,0000.0,0010.62,0004.08,0002.26
2023-04-30 03:34:00,,0831.2,5.00,0.00,29.0,27.3,00.0,37.6,30.5,13.9,0000.0,0010.71,0004.10,0002.28
2023-04-30 03:35:00,,0831.2,5.00,0.00,29.0,27.3,00.0,37.5,30.5,14.1,0000.0,0010.60,0004.09,0002.30
2023-04-30 03:36:00,,0831.2,5.00,0.00,29.0,27.3,00.0,37.5,30.5,14.0,0000.0,0010.65,0004.11,0002.32
2023-04-30 03:37:00,,0831.2,4.99,0.00,29.0,27.3,00.0,37.5,30.5,13.8,0000.0,0009.97,0004.12,0002.33
2023-04-30 03:38:00,,0831.2,5.00,0.00,29.0,27.3,00.0,37.5,30.5,13.8,0000.0,0009.84,0004.10,0002.33
2023-04-30 03:39:00,,0831.2,5.00,0.00,29.0,27.3,00.0,37.5,30.5,13.8,0000.0,0009.82,0004.10,0002.34
2023-04-30 03:40:00,,0831.2,5.01,0.00,29.0,27.3,00.0,37.5,30.5,13.9,0000.0,0009.78,0004.19,0002.35
2023-04-30 03:41:00,,0831.2,5.00,0.00,29.0,27.4,00.0,37.5,30.5,14.0,0000.0,0010.04,0004.19,0002.36
2023-04-30 03:42:00,,0831.2,5.00,0.00,29.0,27.3,00.0,37.5,30.5,14.2,0000.0,0011.25,0004.21,0002.36
2023-04-30 03:43:00,,0831.3,5.00,0.00,29.0,27.3,00.0,37.5,30.5,14.3,0000.0,0011.90,0004.21,0002.36
2023-04-30 03:44:00,,0831.3,5.00,0.00,29.0,27.3,00.0,37.5,30.4,14.4,0000.0,0011.83,0004.21,0002.37
2023-04-30 03:45:00,,0831.3,5.00,0.00,28.9,27.3,00.0,37.5,30.4,14.2,0000.0,0011.28,0004.17,0002.37
2023-04-30 03:46:00,,0831.3,4.99,0.00,29.0,27.3,00.0,37.5,30.4,14.3,0000.0,0011.39,0004.21,0002.37
2023-04-30 03:47:00,,0831.3,5.00,0.00,29.0,27.4,00.0,37.5,30.4,14.4,0000.0,0011.45,0004.21,0002.37
2023-04-30 03:48:00,,0831.3,5.00,0.00,29.0,27.4,00.0,37.5,30.5,14.3,0000.0,0011.46,0004.20,0002.39
2023-04-30 03:49:00,,0831.3,5.00,0.00,29.0,27.5,00.0,37.5,30.5,14.3,0000.0,0011.67,0004.23,0002.39
2023-04-30 03:50:00,,0831.3,5.00,0.00,29.0,27.5,00.0,37.5,30.5,14.2,0000.0,0011.76,0004.26,0002.39
2023-04-30 03:51:00,,0831.3,5.00,0.00,29.0,27.5,00.0,37.5,30.5,14.2,0000.0,0011.77,0004.22,0002.38
2023-04-30 03:52:00,,0831.3,5.00,0.00,29.0,27.5,00.0,37.5,30.5,14.2,0000.0,0012.03,0004.24,0002.40
2023-04-30 03:53:00,,0831.3,4.99,0.00,29.0,27.5,00.0,37.5,30.5,14.5,0000.0,0010.97,0004.25,0002.42
2023-04-30 03:54:00,,0831.3,5.00,0.00,29.0,27.6,00.0,37.5,30.6,14.5,0000.0,0010.19,0004.25,0002.42
2023-04-30 03:55:00,,0831.3,5.00,0.00,29.0,27.5,00.0,37.5,30.6,14.2,0000.0,0010.24,0004.26,0002.44
2023-04-30 03:56:00,,0831.3,5.01,0.00,29.1,27.6,00.0,37.5,30.6,14.2,0000.0,0010.35,0004.30,0002.44
2023-04-30 03:57:00,,0831.2,5.00,0.00,29.1,27.6,00.0,37.5,30.6,14.2,0000.0,0010.48,0004.32,0002.44
2023-04-30 03:58:00,,0831.3,4.99,0.00,29.1,27.6,00.0,37.5,30.6,14.2,0000.0,0010.56,0004.33,0002.44
2023-04-30 03:59:00,,0831.3,5.01,0.00,29.0,27.5,00.0,37.5,30.6,14.2,0000.0,0010.68,0004.30,0002.42
